User: anonymous
Location: Wawayanda State Park
(41.1833°N, 74.4333°W)
Time: 06:26:46
(UTC-04:00)
Language:

RESURS DK-1 - Orbit

View from above orbital plane
View from above orbital plane
View from above satellite
View from above satellite

Ground track
Ground track

The orbit data is extracted from the following two-line orbital elements,

1 29228U 06021A   14112.78527713  .00001371  00000-0  11579-3 0  7795
2 29228 069.9356 144.7750 0006405 294.0470 066.0018 15.00628727435261
Epoch (UTC): 22 April 2014 18:50:47
Eccentricity: 0.0006405
inclination: 69.9356°
perigee height: 560 km
apogee height: 569 km
right ascension of ascending node: 144.7750°
argument of perigee: 294.0470°
revolutions per day: 15.00628727
mean anomaly at epoch: 66.0018°
orbit number at epoch: 43526

The dashed part of the orbit path shows where the satellite is in the earth's shadow,  

DLR